Starlink 31251

operational
NORAD ID: 58836 Int'l Des: 2024-017 Owner: SPXS Country: US Constellation: starlink
LEOCIRCULAR

Starlink 31251について

説明を読み込み中...

リアルタイム位置

3D地球を読み込み中...

次回通過

高度履歴

Altitude vs Time

uPlot chart will show altitude changes over time

軌道要素

1 58836U 24017L 25351.37553435 .00000793 00000-0 38900-4 0 9998
2 58836 53.1601 226.6532 0001197 91.3262 268.7875 15.30180797107568
Epoch: Dec 17, 2025 • Age: 15 hours

現在のステータス

高度 491.2 km
速度 7.62 km/s
衛星直下点 -45.03°S, 2.48°E
打ち上げ日 Jan 24, 2024
運用期間 1.8 years
タイプ internet

技術仕様

分類 Payload
質量 730.00 kg
乾燥質量 700.00 kg
総質量 730.00 kg
長さ 0.30 m
直径 4.10 m
スパン 29.00 m
形状 Box + pan
製造者 SPXS
バスタイプ Starlink V2M
フェーズステータス In Orbit
所有者/国 SPXS/US

大規模コンステレーション

Loading constellations...